TimePST,TemperatureF,Dew PointF,Humidity,Sea Level PressureIn,VisibilityMPH,Wind Direction,Wind SpeedMPH,Gust SpeedMPH,PrecipitationIn,Events,Conditions,WindDirDegrees,DateUTC
12:55 AM,37.9,35.1,89,29.55,10.0,NNW,4.6,-,0.00,,Overcast,330,2011-11-23 08:55:00
1:55 AM,37.0,35.1,93,29.54,10.0,North,-9999.0,-,N/A,,Mostly Cloudy,0,2011-11-23 09:55:00
2:55 AM,39.0,36.0,89,29.51,10.0,WSW,9.2,17.3,N/A,,Overcast,250,2011-11-23 10:55:00
4:55 AM,39.0,36.0,89,29.47,10.0,ESE,6.9,-,N/A,,Overcast,110,2011-11-23 12:55:00
5:55 AM,51.1,37.0,59,29.43,10.0,ESE,17.3,23.0,N/A,,Overcast,120,2011-11-23 13:55:00
6:55 AM,55.0,37.0,51,29.42,10.0,East,19.6,28.8,N/A,,Overcast,100,2011-11-23 14:55:00
7:55 AM,54.0,36.0,51,29.43,10.0,ESE,16.1,23.0,N/A,,Overcast,110,2011-11-23 15:55:00
8:55 AM,52.0,37.0,57,29.46,10.0,SE,13.8,23.0,N/A,,Overcast,130,2011-11-23 16:55:00
9:55 AM,48.9,37.9,66,29.49,10.0,Calm,Calm,-,N/A,,Overcast,0,2011-11-23 17:55:00
10:55 AM,46.9,37.9,71,29.50,10.0,WNW,10.4,-,N/A,,Overcast,290,2011-11-23 18:55:00
11:55 AM,44.1,39.0,82,29.52,10.0,South,3.5,-,N/A,,Overcast,190,2011-11-23 19:55:00
12:55 PM,46.9,39.9,77,29.51,10.0,WNW,5.8,-,N/A,,Overcast,290,2011-11-23 20:55:00
1:55 PM,48.0,39.9,74,29.55,10.0,NNW,10.4,-,0.00,,Overcast,330,2011-11-23 21:55:00
2:55 PM,48.0,39.0,71,29.55,10.0,Calm,Calm,-,N/A,,Mostly Cloudy,0,2011-11-23 22:55:00
3:55 PM,48.0,36.0,63,29.57,10.0,WNW,5.8,-,N/A,,Mostly Cloudy,290,2011-11-23 23:55:00
4:55 PM,45.0,36.0,71,29.60,10.0,NW,8.1,-,N/A,,Partly Cloudy,320,2011-11-24 00:55:00
5:55 PM,44.1,36.0,73,29.63,10.0,North,9.2,-,N/A,,Clear,350,2011-11-24 01:55:00
7:55 PM,42.1,34.0,73,29.67,10.0,Variable,3.5,-,N/A,,Clear,0,2011-11-24 03:55:00
8:55 PM,42.1,30.9,65,29.68,10.0,NNW,10.4,-,N/A,,Clear,340,2011-11-24 04:55:00
9:55 PM,39.9,30.0,68,29.71,10.0,NW,11.5,-,N/A,,Clear,310,2011-11-24 05:55:00
10:55 PM,39.0,28.9,67,29.74,10.0,NNW,6.9,-,N/A,,Clear,330,2011-11-24 06:55:00
11:55 PM,34.0,28.0,79,29.77,10.0,East,5.8,-,N/A,,Clear,80,2011-11-24 07:55:00